Location: ????????
(56.1167°N, 38.6333°E)
Time: 11:55:52
(UTC+00:00)

ATLAS CENTAUR R/B - Pass Details

Date: 18 November 2025
Orbit: 343 x 422 km, 64.6° (Epoch: 10 December)

Event Time Altitude Azimuth Distance (km) Brightness Sun altitude
Rises 14:15:27 0° 241° (WSW) 2,431 6.9 -8.6°
Reaches altitude 10° 14:17:34 10° 245° (WSW) 1,567 5.4 -8.9°
Maximum altitude 14:21:01 56° 325° (NW) 538 1.4 -9.3°
Enters shadow 14:24:11 12° 44° (NE) 1,460 2.9 -9.7°
